Temp
13 13 14 14 13 13 14 14 14 14 14 13 13 13 13 13 13 13 13 13 13 14 14 14 14 14 14 14 13 13 13 13 13 13 14 14 13 14 14 15 15 15 15 15 15 15 15 14 14 14 14 14 14 14 14 14 14 14 15 15 15 15 15 15 15 15 15 15 15
13 14 14 13 13 13 13 13 13 13 13 13 13 13 13 13 13 13 13 13 13 14 14 14 14 14 14 14 14 14 13 13 14 14 14 14 14 14 14 14 15 15 15 15 15 15 15 14 14 14 14 14 14 14 14 14 14 14 14 14 15 15 15 15 15 15 14 14 14
13 13 13 13 13 13 13 13 13 12 12 12 13 13 13 13 13 13 13 13 13 14 14 14 14 14 14 14 14 14 14 14 14 14 14 14 14 14 14 15 15 15 15 15 15 15 14 14 14 14 14 14 14 14 14 14 14 14 14 14 14 14 14 14 14 14 14 14 14
13 13 13 13 13 13 13 13 13 12 12 12 12 13 13 13 13 13 13 13 13 13 14 14 14 14 14 14 14 14 14 14 14 14 14 14 14 14 15 15 15 15 15 15 15 14 14 14 14 14 14 14 14 14 14 14 14 14 14 14 14 14 14 14 14 14 14 14 14
13 13 13 13 13 13 13 13 12 12 12 12 13 13 13 13 13 13 13 13 13 13 14 14 14 14 14 14 14 14 14 14 14 14 14 14 14 14 15 15 15 15 15 15 15 14 14 14 14 14 14 14 14 14 14 14 14 14 14 14 14 14 14 14 14 14 14 14 14
12 12 13 13 13 13 13 13 12 12 12 12 13 13 13 13 13 13 13 13 13 13 14 14 14 14 14 14 14 14 14 14 14 15 15 15 14 15 15 15 15 15 15 15 14 14 14 14 14 14 14 14 14 14 14 14 14 14 14 14 14 14 14 14 14 14 14 14 14
12 12 12 12 12 12 12 12 12 12 12 13 13 13 13 13 13 13 13 13 13 13 14 14 14 14 14 14 14 14 14 14 14 15 15 15 15 15 15 15 15 15 15 15 14 14 14 14 14 14 14 14 14 14 14 14 14 14 14 14 14 14 14 14 14 14 14 14 14
12 12 12 12 12 12 12 12 13 13 13 13 13 13 13 13 13 13 13 13 13 13 14 14 14 14 14 14 14 14 14 14 14 15 15 15 14 14 15 15 15 15 14 14 14 14 14 14 14 14 14 14 14 14 14 14 14 14 14 14 14 14 14 14 14 14 14 14 14
12 12 12 12 12 12 12 13 13 13 13 13 13 13 13 13 13 13 13 13 13 13 13 14 14 14 14 14 14 14 14 14 14 14 14 14 14 14 14 14 14 14 14 14 14 14 14 14 14 14 14 14 14 14 14 14 14 14 14 14 14 14 14 14 14 13 13 13 13
12 12 12 12 12 12 13 13 13 13 13 13 13 13 13 13 13 13 13 13 13 13 13 13 14 14 14 14 14 14 14 14 14 14 14 14 14 14 14 14 14 14 14 14 14 14 14 14 14 14 14 14 14 14 14 14 14 14 14 14 14 14 14 14 14 13 13 13 13
12 12 12 12 12 13 13 13 13 13 13 13 13 13 13 13 13 13 13 13 13 13 13 14 14 14 14 14 14 14 14 14 14 14 14 14 14 14 14 14 14 14 14 14 14 14 14 14 14 14 14 14 14 14 14 14 14 14 14 14 14 14 14 14 14 13 13 13 13
12 12 12 12 12 13 13 13 13 13 13 13 13 13 13 13 13 13 13 13 13 13 14 14 14 14 14 14 14 14 14 14 14 14 14 14 14 14 14 14 14 14 14 14 14 14 14 14 14 14 14 14 14 14 14 14 14 14 14 14 14 14 14 14 13 13 13 13 13
12 12 12 12 13 13 13 13 13 13 13 13 13 13 13 13 13 13 13 14 14 14 14 14 14 14 14 14 14 14 14 14 14 14 14 14 14 14 14 14 14 14 14 14 14 14 14 14 14 14 14 14 14 14 14 14 14 14 14 14 14 14 14 14 13 13 13 13 13
12 12 12 12 12 12 13 13 13 13 13 13 13 13 13 13 13 14 14 14 14 14 14 14 14 14 14 14 14 14 14 14 14 14 14 14 14 14 14 14 14 14 14 14 14 14 14 14 14 14 14 14 14 14 14 14 14 14 14 14 14 14 14 14 13 13 13 13 13
12 12 12 12 12 12 13 13 13 13 13 13 13 13 13 14 14 14 14 14 14 14 15 14 14 14 14 14 14 14 14 14 15 15 14 14 14 14 14 14 14 14 14 14 14 14 14 14 14 14 14 14 14 14 13 13 13 14 14 14 14 14 13 13 13 13 13 13 13
12 12 12 12 12 12 12 13 13 12 12 13 13 13 13 14 14 14 14 14 14 14 15 14 14 14 14 14 14 14 14 15 15 14 14 14 14 14 14 14 14 14 14 14 14 14 14 14 14 14 14 14 13 13 13 13 13 13 13 14 14 13 13 13 13 13 13 13 13
11 12 12 12 12 12 12 12 12 12 12 13 13 13 13 14 14 14 14 14 14 14 14 14 14 14 14 14 14 14 14 14 14 14 14 14 14 14 14 14 14 14 14 14 14 14 14 14 14 14 14 14 13 13 13 13 13 13 13 13 13 13 13 13 13 13 13 13 13
11 12 12 12 12 12 12 12 12 12 12 13 13 13 13 14 14 14 14 14 14 14 14 14 14 14 14 14 14 14 14 14 14 14 14 14 14 14 14 14 14 14 14 14 14 14 14 14 14 14 14 14 14 14 13 13 13 13 14 14 14 13 13 13 13 13 13 13 13
11 11 12 12 12 12 12 12 13 13 13 13 13 13 13 14 14 13 14 14 14 15 14 14 14 14 14 14 14 14 14 14 14 14 14 14 14 14 14 14 14 14 14 14 14 14 14 14 14 14 14 14 14 14 14 14 14 14 14 14 14 14 13 14 13 13 13 13 13
11 12 12 12 12 12 12 12 13 13 13 13 13 13 13 13 13 13 14 14 14 14 14 14 14 14 14 14 14 14 14 14 14 14 14 14 14 14 14 14 14 14 14 14 14 14 14 14 14 14 14 14 14 14 14 14 14 14 14 14 14 14 14 14 14 13 13 13 13
12 12 12 12 12 12 12 12 12 12 13 13 13 13 13 13 13 13 14 14 14 14 13 14 14 14 14 14 14 14 15 15 15 14 14 14 14 14 14 14 14 14 14 14 14 14 14 14 14 14 14 14 14 14 14 14 14 14 14 14 14 14 14 14 14 14 13 13 13
12 12 12 12 12 12 12 12 12 12 12 12 13 13 13 13 13 13 14 14 14 14 14 14 14 14 14 15 15 15 15 15 15 15 14 14 14 14 14 14 14 14 14 14 14 14 14 14 14 14 14 14 14 14 14 14 14 14 14 14 14 14 14 14 14 14 13 13 13
12 12 12 12 12 12 12 12 12 12 12 12 13 13 13 13 13 13 13 13 13 13 14 14 14 15 15 15 15 15 15 15 15 15 15 14 14 14 14 14 14 14 14 14 14 14 14 14 14 14 14 14 14 14 14 14 14 14 13 13 13 13 13 13 13 13 13 13 13
12 12 12 12 12 12 13 12 13 13 13 13 12 12 12 12 12 12 12 12 13 13 13 14 14 14 14 15 15 15 14 14 14 14 14 14 14 14 15 14 14 14 14 14 14 14 14 14 14 14 14 14 14 14 14 14 14 14 14 13 13 13 13 13 13 13 13 13 13
12 12 12 12 12 13 13 12 12 11 11 11 11 11 12 12 11 11 12 12 12 12 12 13 13 13 14 14 14 14 14 14 13 13 13 13 14 14 14 14 14 14 14 14 14 14 14 14 14 14 14 14 14 14 14 14 14 14 14 14 14 14 13 13 13 13 13 13 13
12 12 12 12 12 12 11 10 10 10 10 10 11 11 11 11 11 11 11 11 11 12 12 12 12 12 12 13 13 13 13 13 13 13 13 13 13 13 13 13 13 14 14 14 14 14 14 14 14 14 14 14 14 14 14 14 14 14 14 14 14 14 13 13 13 13 13 13 13
12 12 12 12 11 10 9 9 9 9 10 10 10 10 10 10 10 10 10 10 11 11 11 11 11 11 11 12 12 12 12 12 12 12 13 13 13 13 13 13 13 13 14 14 15 15 14 14 14 14 14 14 14 14 14 14 14 14 14 14 14 14 14 14 13 13 13 13 13
12 11 10 9 9 9 9 9 9 9 9 9 9 9 9 9 9 9 9 10 10 10 10 10 10 10 10 10 10 11 11 11 11 12 12 12 12 12 12 12 12 13 14 14 15 15 14 14 14 14 14 14 14 14 14 14 14 14 13 13 13 13 13 13 13 13 13 13 13
10 9 9 9 8 8 8 8 8 8 8 8 8 8 8 8 8 9 8 8 9 9 9 8 9 9 9 9 9 9 10 10 10 10 11 11 11 11 11 12 12 12 13 14 14 14 14 14 14 14 14 14 14 14 14 14 13 13 13 13 13 13 13 13 13 13 13 13 13
9 8 8 8 8 7 7 7 7 7 7 7 7 7 7 7 7 7 7 7 7 7 7 7 8 8 8 8 8 8 8 8 9 10 10 10 10 10 10 11 11 11 12 13 14 14 14 14 14 14 14 14 14 14 13 13 12 12 12 12 12 12 12 12 12 12 12 13 13
8 7 7 7 7 7 6 6 6 6 6 6 6 6 6 6 6 6 6 6 5 6 6 7 7 7 6 7 7 7 7 7 8 9 9 9 9 9 9 10 10 10 11 12 13 13 14 14 14 14 14 14 13 13 12 12 11 11 10 10 10 10 11 11 11 11 11 12 12
7 7 6 6 6 6 6 5 5 5 5 5 5 5 5 5 5 5 5 5 5 5 6 6 6 6 5 5 6 6 6 6 7 7 8 8 8 8 8 8 9 9 10 11 12 12 13 13 13 13 13 13 13 12 11 11 10 9 9 9 9 9 9 9 10 10 10 11 11
6 6 5 5 5 5 5 5 4 4 4 4 4 4 4 4 4 4 4 4 5 5 5 5 5 4 4 4 4 5 5 5 5 6 6 7 8 8 7 7 7 7 8 9 10 11 11 12 12 12 12 12 12 11 10 10 9 9 8 8 8 8 8 8 9 9 9 10 10
5 5 5 4 4 4 4 4 4 4 4 3 3 3 3 3 3 3 3 3 4 4 4 4 3 3 3 3 4 4 4 4 4 5 5 6 7 7 6 5 5 5 7 8 8 9 10 10 11 11 11 11 11 10 9 9 8 8 7 7 7 7 7 7 8 8 8 9 9
5 5 4 4 4 4 3 3 3 3 3 3 3 2 2 2 2 2 2 3 3 3 3 3 3 3 3 3 3 3 3 3 3 4 4 5 6 6 5 4 4 5 6 7 8 8 9 9 10 10 10 10 9 9 8 8 7 6 6 6 5 5 6 6 6 7 7 7 8
4 4 4 4 3 3 3 3 3 3 3 3 2 2 2 2 2 2 2 2 2 2 2 2 2 2 2 2 2 2 2 2 3 3 3 4 5 5 4 4 4 5 6 7 7 8 8 8 9 9 9 9 8 7 7 7 6 5 5 5 4 4 4 5 5 5 6 6 7
4 4 3 3 3 3 3 3 2 2 2 2 2 2 1 1 1 1 2 2 2 2 1 1 1 1 1 1 1 1 1 2 2 2 2 3 3 3 3 3 3 4 5 6 7 7 7 8 8 8 8 8 7 6 6 6 5 4 4 3 3 3 3 3 4 4 4 5 5
3 3 3 3 2 2 2 2 2 1 1 1 1 1 1 1 1 1 1 1 1 1 1 1 0 0 0 1 1 1 1 1 1 1 1 1 2 2 2 2 2 3 4 5 5 6 6 7 7 8 8 7 6 6 5 4 4 3 3 2 2 2 2 2 2 2 3 3 4
3 3 3 2 2 2 2 1 1 1 1 1 0 0 1 0 0 0 0 1 1 0 0 -0 -0 -0 -0 -0 0 -0 -0 0 1 1 0 0 1 2 2 2 2 2 3 4 5 5 6 6 6 7 7 7 6 5 4 4 3 2 1 1 0 0 1 1 1 1 1 2 2
2 2 2 2 2 1 1 1 1 0 0 0 0 0 -0 -0 -0 -0 -0 0 0 -0 -0 -1 -1 -1 -1 -1 -0 -0 -1 -0 -0 0 0 -0 0 1 1 1 1 1 2 3 4 4 5 5 6 6 6 6 5 4 4 3 2 1 -0 -0 -1 -1 -1 -0 -0 0 0 1 1
1 1 1 1 1 1 1 0 0 0 -0 -0 -0 -0 -1 -1 -0 -0 -0 -0 -0 -1 -1 -1 -1 -1 -1 -1 -1 -1 -1 -1 -1 -1 -0 -0 0 0 1 1 1 1 2 2 3 4 4 4 5 5 5 5 4 4 3 3 1 -0 -1 -1 -1 -1 -1 -1 -1 -1 -1 -0 0
Height
619 620 621 622 623 623 624 625 626 626 628 630 632 634 636 638 640 641 643 645 646 648 649 650 651 652 653 654 655 656 658 660 661 663 665 667 669 671 672 674 675 675 674 674 679 686 691 695 698 701 704 706 709 711 713 714 716 718 720 722 725 728 730 732 735 737 740 741 743
619 619 620 621 622 622 623 624 625 626 628 629 631 633 635 637 639 641 642 644 645 647 648 649 650 651 652 653 654 656 657 659 660 661 663 665 667 669 671 673 674 674 674 675 680 686 691 695 698 701 704 706 709 711 713 714 716 717 720 722 724 727 730 732 734 736 739 741 743
618 619 620 621 621 621 622 623 625 626 627 629 631 633 635 636 638 640 641 642 644 646 647 648 649 650 651 652 654 655 656 657 659 660 661 663 666 668 670 671 672 673 674 677 681 686 690 694 697 700 703 706 708 710 712 714 715 717 719 721 724 726 729 731 734 736 738 740 742
618 619 619 620 620 620 621 622 624 625 627 629 631 633 635 636 638 639 641 642 643 645 646 647 648 650 651 651 653 654 655 657 658 659 660 662 664 666 668 669 671 672 675 678 682 686 690 694 697 700 702 705 707 709 711 713 715 716 719 721 723 725 728 730 733 735 737 739 741
618 618 619 619 619 620 621 622 624 625 627 629 631 632 634 636 637 639 640 641 642 644 645 646 647 649 650 651 652 653 655 656 658 659 660 662 663 664 665 666 669 672 676 679 683 687 691 694 697 700 702 704 706 708 710 711 714 716 718 721 722 725 727 729 732 734 736 739 741
618 618 618 618 619 620 621 623 624 625 627 629 630 632 634 635 637 638 639 640 641 642 644 645 646 648 649 650 651 653 654 656 657 659 660 661 663 663 663 665 668 672 676 680 683 687 690 693 696 699 701 704 706 707 709 711 713 715 718 720 722 724 726 728 731 733 736 738 740
618 618 618 619 619 621 622 623 624 625 627 628 630 631 633 634 636 637 638 639 640 641 643 644 646 647 649 650 651 652 654 656 657 658 660 661 662 663 663 664 668 672 676 680 684 687 690 693 696 699 701 703 705 707 709 711 712 715 717 719 721 723 725 727 730 732 735 737 739
618 618 618 619 620 621 622 623 624 625 626 628 629 631 632 633 635 636 637 638 639 640 641 643 645 646 648 650 651 652 654 656 657 658 660 661 662 663 664 665 668 672 676 680 684 687 690 693 696 698 700 703 705 707 708 710 712 714 716 718 721 722 725 727 730 732 734 736 738
618 618 618 619 620 621 622 623 624 625 626 627 628 630 631 632 633 635 636 636 637 639 640 642 644 646 648 649 650 652 654 656 658 659 661 662 663 663 665 666 669 673 677 680 684 687 690 692 695 697 700 702 704 706 708 710 712 714 716 718 720 722 725 727 729 731 733 735 736
618 618 619 620 621 621 622 623 624 624 625 626 627 629 630 631 632 633 634 635 636 637 639 641 643 645 647 648 650 651 654 656 658 660 661 662 663 664 666 667 670 673 677 681 684 687 689 692 695 697 699 701 703 705 707 709 711 713 715 717 720 722 724 726 728 730 732 733 735
618 618 619 620 621 621 622 623 623 624 625 626 627 628 629 630 631 631 632 633 634 636 637 639 641 643 645 646 649 651 653 655 657 659 661 661 663 664 666 668 670 673 677 680 683 686 689 692 694 697 699 701 703 705 707 709 711 713 715 717 719 721 723 725 727 729 731 732 734
619 619 620 620 621 621 622 622 623 624 624 625 626 626 627 627 628 629 630 631 632 634 636 638 640 641 643 645 648 650 652 654 656 657 659 660 662 664 666 668 671 673 676 680 683 686 689 691 694 696 699 701 703 705 706 708 710 712 714 716 718 720 722 724 726 728 730 731 733
620 620 620 621 621 621 622 622 623 623 624 624 625 625 625 625 625 626 627 628 630 632 634 636 638 640 642 645 647 650 652 654 655 656 657 659 661 664 666 668 671 674 677 680 683 686 688 691 693 696 698 700 702 704 706 708 710 712 714 716 718 720 721 723 725 726 728 731 732
620 621 621 621 621 621 622 622 623 623 624 624 624 623 622 622 623 624 625 626 629 631 633 635 638 640 642 644 648 651 652 653 653 655 657 659 661 664 666 669 671 674 677 680 683 686 688 691 693 695 697 700 701 703 705 707 709 711 713 715 716 718 720 722 724 726 727 730 731
621 621 621 621 621 621 622 622 623 624 624 624 623 622 621 621 621 623 624 626 628 630 632 635 638 640 642 645 648 650 651 651 652 654 657 659 661 664 666 669 672 675 678 681 683 686 688 691 693 695 697 699 701 703 705 707 709 711 712 714 715 717 719 721 723 725 726 728 730
621 621 621 621 622 622 622 623 624 624 625 624 623 621 620 621 622 623 625 626 628 630 632 635 638 641 644 646 647 648 649 650 652 654 657 660 662 665 667 670 672 675 678 681 684 686 689 691 693 695 697 699 701 703 705 706 708 710 711 713 715 716 718 720 721 723 725 727 729
622 622 622 622 623 623 623 623 624 625 625 625 624 622 621 621 623 624 625 627 628 631 633 636 639 642 645 646 647 647 648 650 652 655 658 660 663 665 668 670 673 676 678 681 684 686 689 691 693 695 697 699 701 702 704 706 708 710 711 713 714 716 717 719 721 722 724 726 728
622 622 623 623 624 624 624 624 625 625 626 626 626 624 623 623 624 626 627 628 629 631 633 636 640 643 645 646 647 647 648 651 653 656 658 661 663 666 668 671 674 676 679 681 684 686 689 691 693 695 697 699 701 702 704 706 707 709 711 712 713 715 716 718 720 722 724 726 727
623 623 623 624 624 625 625 626 626 626 626 626 626 626 626 625 626 628 629 629 630 631 634 636 640 642 644 645 646 647 649 652 654 656 659 661 664 666 669 672 675 677 680 682 685 687 689 691 693 695 697 699 701 702 704 706 707 709 710 711 713 714 716 718 720 721 723 725 727
624 624 624 625 625 626 627 628 628 628 626 626 627 628 629 629 629 630 631 631 632 634 636 638 641 643 644 645 646 648 650 652 655 657 660 662 665 668 670 673 676 678 681 683 685 687 689 691 693 695 697 699 700 702 704 705 706 708 709 711 712 714 716 717 719 721 723 725 726
625 625 625 626 626 627 628 630 631 631 630 629 628 630 632 633 634 634 635 636 637 638 640 641 642 643 644 645 646 648 651 653 656 658 661 664 666 669 671 674 677 679 681 684 686 688 690 691 693 695 697 698 700 701 703 705 706 708 709 711 712 714 716 717 719 721 723 725 726
626 626 626 626 627 628 629 631 633 634 634 633 633 633 635 636 637 638 639 640 640 641 642 642 643 643 644 646 647 649 652 655 657 660 663 665 668 671 673 676 678 680 682 684 686 687 689 691 693 695 696 698 700 701 703 704 706 707 709 711 712 714 716 717 719 721 722 724 726
626 626 626 627 628 629 630 631 633 634 635 636 636 636 636 637 639 640 640 641 641 641 641 641 641 642 644 646 648 650 653 656 658 661 664 666 669 671 674 676 678 680 682 684 686 687 689 691 693 695 696 698 700 701 703 704 706 707 709 710 712 714 715 717 719 721 722 723 725
626 627 627 628 629 630 631 631 632 633 634 635 635 635 635 637 638 639 640 640 640 640 640 641 642 643 646 648 650 652 654 656 659 661 664 667 669 671 673 676 677 680 681 683 685 687 689 691 693 695 696 698 700 701 703 704 705 707 708 710 711 713 715 717 718 720 721 723 724
627 628 629 630 631 631 632 632 632 632 632 632 633 634 635 637 638 639 639 639 639 640 641 642 644 646 647 650 651 654 656 658 660 662 665 667 669 671 674 676 678 680 681 683 685 687 689 691 693 695 696 698 700 701 702 703 705 706 707 709 711 713 715 716 718 720 721 722 723
629 630 631 631 632 633 633 633 633 633 633 633 634 636 637 639 640 640 640 640 640 641 643 645 646 648 650 651 653 655 657 659 661 663 666 668 670 672 674 676 678 680 682 684 686 688 690 691 693 695 696 698 699 700 701 702 704 706 707 709 711 712 714 716 717 719 720 721 722
630 631 632 632 633 633 634 634 634 635 636 636 637 639 640 641 642 642 642 642 643 644 646 648 649 650 651 653 655 657 659 661 663 665 667 669 671 673 675 677 679 681 683 685 686 688 690 692 693 695 696 697 699 700 702 703 705 706 707 709 711 712 714 715 717 718 719 721 721
631 631 632 633 634 635 636 636 636 637 638 639 641 642 643 643 644 644 645 645 646 647 649 650 651 652 653 655 657 659 661 663 665 666 668 671 672 674 676 678 680 681 683 685 687 688 690 691 693 694 696 697 698 699 701 702 704 706 707 709 711 712 713 715 716 717 719 720 721
631 632 633 635 636 637 637 638 639 640 641 643 644 645 645 645 646 647 647 648 649 650 651 653 654 655 656 658 660 661 663 665 666 668 670 672 673 675 677 679 681 682 684 685 687 688 690 691 692 693 695 696 697 699 701 702 704 705 707 708 710 711 712 714 715 716 717 718 719
633 634 636 637 638 639 639 640 641 642 644 645 646 647 647 647 648 649 650 650 651 653 654 655 656 657 658 661 662 664 666 667 669 670 671 673 675 676 678 680 681 683 684 686 687 688 689 690 691 693 694 696 697 699 701 702 704 705 707 708 710 711 712 713 714 715 716 717 718
635 636 637 638 640 641 642 643 644 645 646 647 648 648 648 648 650 651 652 653 654 656 656 656 657 659 661 663 664 666 667 669 670 671 672 674 676 677 679 680 681 683 685 686 687 688 689 690 692 693 694 696 697 699 701 702 704 706 707 708 709 710 711 712 713 714 715 716 716
638 638 639 641 642 644 645 646 647 648 648 649 649 649 649 651 652 654 655 656 656 657 658 658 660 661 664 665 666 668 669 671 672 673 674 675 676 678 679 681 682 684 686 687 688 689 690 691 692 693 695 696 698 700 701 703 705 706 707 709 710 711 711 712 712 713 714 715 716
640 641 642 643 645 647 648 649 650 651 651 651 651 651 652 654 655 656 657 658 658 659 659 661 662 664 666 667 668 670 671 672 673 675 676 676 677 678 680 682 684 686 687 688 689 690 691 691 693 694 696 697 699 700 702 704 705 707 708 709 710 711 712 712 712 713 714 715 716
642 643 644 646 648 650 651 652 652 652 653 653 654 655 656 657 658 658 659 660 660 661 661 663 664 666 668 669 670 671 673 674 675 676 677 678 678 679 681 684 686 688 689 690 690 691 692 693 694 695 696 698 699 701 703 704 706 707 709 710 711 711 712 712 713 713 714 715 716
644 645 647 649 651 652 653 654 654 654 654 655 657 658 659 660 661 661 662 662 662 662 664 666 667 668 670 671 672 673 675 676 677 678 679 680 680 681 683 686 689 690 691 691 692 693 694 695 696 697 698 699 701 702 703 705 706 708 709 710 711 712 712 713 713 714 715 716 716
647 648 650 652 654 655 656 656 656 656 656 658 659 661 661 662 663 664 665 664 663 664 666 668 669 670 671 673 674 676 677 678 679 681 682 682 682 683 685 688 690 691 692 693 694 695 696 697 698 699 699 700 701 703 704 705 707 708 710 711 711 712 713 714 714 715 716 716 717
650 651 653 655 656 658 658 658 658 659 660 661 662 663 663 664 666 667 667 666 666 666 668 670 671 672 673 675 676 678 680 681 682 684 684 685 685 685 687 689 691 693 694 695 696 697 698 699 700 700 701 701 702 703 705 706 708 709 711 711 713 714 714 715 716 716 717 717 718
654 654 656 657 659 661 661 661 661 662 663 664 665 665 666 666 668 669 670 669 668 669 671 672 674 675 676 677 679 681 683 684 685 686 686 687 687 688 689 691 693 695 696 697 698 699 700 700 701 701 702 703 704 705 706 707 709 710 711 713 714 715 716 716 717 717 718 719 720
657 658 659 660 662 663 663 664 664 666 666 667 667 667 667 668 670 671 672 672 671 671 673 675 677 679 680 681 682 684 686 686 687 687 688 689 690 691 691 692 695 697 699 700 700 701 701 702 702 703 703 704 705 706 707 708 710 711 713 714 715 716 717 717 718 719 719 720 721
661 661 662 663 665 666 666 667 668 669 670 669 669 669 670 671 672 673 674 674 675 675 676 678 681 682 683 683 684 685 687 688 689 689 690 692 693 694 694 695 697 699 701 701 702 702 703 703 704 704 705 705 706 707 708 709 711 712 714 715 716 717 718 719 720 720 721 721 722
664 664 665 666 667 667 668 669 671 671 672 671 671 672 673 674 675 676 676 677 678 679 680 682 683 684 685 685 686 686 687 689 691 692 693 694 695 696 697 698 700 701 702 703 704 704 704 705 705 706 706 706 707 708 709 710 711 713 715 716 717 718 719 720 721 722 723 723 724
Wind_Speed
28 28 27 26 25 24 22 20 20 21 21 20 20 20 19 18 18 18 18 19 19 19 19 19 21 20 21 24 27 28 28 28 27 28 30 31 31 32 34 35 32 33 37 40 41 39 37 36 34 33 32 32 32 32 31 31 31 31 31 30 30 30 30 30 30 28 26 26 27
28 28 27 25 24 22 20 18 18 19 20 20 21 21 20 19 18 18 19 20 20 20 19 19 20 20 21 23 26 27 27 27 26 28 30 32 33 34 36 35 34 35 38 40 40 38 37 36 34 33 32 32 31 30 30 30 31 31 30 30 30 30 30 30 29 28 28 27 27
28 27 25 24 22 20 18 16 17 18 19 19 20 20 20 19 18 18 19 20 21 21 20 19 20 21 21 23 25 26 26 26 27 29 31 33 36 37 37 34 34 37 39 40 39 38 36 36 35 33 33 32 31 30 30 31 31 30 30 30 30 30 30 29 28 28 27 27 27
26 25 23 23 21 20 18 16 16 18 19 18 18 19 19 18 17 17 19 20 22 21 20 19 20 21 22 23 25 25 26 27 27 29 33 35 38 39 38 36 36 38 39 39 38 37 37 36 34 32 31 32 32 31 30 30 31 31 30 30 29 30 29 28 28 28 27 26 27
24 23 23 22 21 19 17 15 15 16 17 17 17 18 18 18 17 17 18 20 21 22 21 20 20 21 22 23 25 26 27 28 28 30 34 36 38 39 39 39 39 39 39 38 37 37 36 35 32 30 30 32 32 31 30 31 31 30 29 28 29 29 29 28 27 27 26 25 26
22 22 21 20 19 17 15 14 14 15 16 16 17 17 18 18 17 17 18 20 21 23 22 21 21 21 22 24 26 27 28 29 30 31 34 36 37 38 39 41 41 40 38 37 36 36 35 34 31 29 30 31 31 30 31 32 32 30 28 27 28 28 28 28 27 26 26 26 26
20 19 18 17 16 15 14 13 14 14 15 16 17 18 19 19 19 19 19 21 21 22 22 21 22 21 22 25 28 29 29 31 32 33 34 36 37 38 39 41 41 39 37 37 36 35 34 33 30 28 29 30 29 30 31 32 32 29 27 26 27 27 27 28 27 27 27 27 28
17 16 16 15 15 14 14 14 14 14 15 16 18 19 20 21 21 20 21 21 22 22 23 22 22 22 24 27 29 30 31 33 34 34 34 35 35 37 39 40 40 38 37 36 36 35 34 32 30 29 28 29 28 29 31 32 31 29 27 26 26 26 27 27 27 27 28 29 29
14 14 14 14 14 14 14 14 14 15 15 17 18 19 20 21 21 22 22 23 23 23 23 23 24 24 25 29 31 32 32 34 34 34 34 34 34 35 37 39 39 37 36 36 35 34 33 31 29 28 28 28 28 29 31 31 30 28 27 26 25 26 26 27 27 28 29 29 30
13 13 13 13 14 14 14 14 14 15 15 16 17 18 20 21 22 23 24 25 25 24 23 23 25 26 28 31 33 34 34 35 35 34 33 33 34 36 37 38 38 37 36 36 35 34 33 31 28 27 27 27 28 29 30 31 30 28 27 25 26 26 26 27 27 27 28 28 29
12 13 13 13 14 14 14 14 14 14 15 15 16 18 19 21 23 24 26 26 26 25 25 26 27 29 30 33 35 35 35 35 35 34 33 34 35 37 38 37 37 37 36 35 34 33 31 29 28 27 27 27 28 29 30 30 29 27 26 25 26 26 26 26 26 27 27 28 29
12 12 13 13 14 14 14 14 13 13 14 14 15 17 19 21 24 26 28 28 28 27 27 28 30 32 33 34 36 36 36 35 34 33 34 35 36 37 37 36 36 36 36 35 34 32 30 29 28 28 27 27 27 28 29 30 29 27 26 25 25 26 26 26 26 26 26 27 28
12 12 12 13 13 13 13 13 13 13 12 13 14 16 18 21 24 27 29 29 29 28 29 31 34 35 34 34 37 38 37 36 34 33 34 35 36 36 35 35 35 35 35 34 33 31 29 28 28 28 27 27 26 27 28 30 29 27 26 25 25 25 25 26 26 26 26 26 26
11 12 12 12 13 12 12 12 12 11 11 12 14 15 15 19 24 27 29 29 29 30 32 34 36 36 36 37 39 39 37 35 34 34 34 35 35 34 34 34 34 34 34 33 32 31 29 28 28 28 27 27 26 27 28 29 28 27 26 26 26 25 25 25 25 25 25 25 24
11 11 11 12 12 13 12 12 11 11 11 12 12 11 13 19 24 27 28 29 31 32 34 36 37 37 38 40 39 37 35 34 35 35 34 34 34 34 33 33 33 33 33 32 31 30 29 28 28 28 27 27 26 26 27 28 28 27 27 26 26 26 25 25 25 25 24 24 23
11 11 11 12 13 13 13 12 11 11 10 9 7 9 15 20 24 26 28 29 31 33 35 37 37 38 39 40 38 36 35 35 35 35 34 33 33 33 33 33 33 32 32 31 30 29 28 27 27 27 27 26 26 26 26 27 26 26 26 26 26 26 26 25 25 25 24 24 23
11 10 11 12 13 13 13 11 10 10 9 7 7 12 17 20 22 24 26 28 30 33 35 37 38 38 39 39 37 36 35 35 34 34 33 33 33 33 32 32 32 32 32 31 30 28 27 26 26 26 26 26 25 25 25 26 25 25 25 26 26 25 26 26 26 25 24 24 23
11 10 11 12 13 13 12 11 10 10 9 7 10 14 18 19 20 23 25 28 30 33 35 36 37 38 37 37 36 35 34 33 33 32 32 33 32 32 32 31 32 31 31 30 29 28 26 26 25 25 25 25 24 24 24 24 25 25 25 25 25 25 25 26 25 25 24 24 24
10 10 11 12 13 13 12 12 10 11 10 8 9 14 18 18 20 23 25 28 31 34 36 36 37 37 37 36 34 33 32 32 32 31 31 32 31 31 31 30 30 30 30 29 28 27 26 25 25 25 24 23 23 23 23 24 24 25 24 24 24 25 25 25 25 25 25 24 24
9 9 10 12 12 12 12 12 11 12 11 8 6 11 17 22 23 24 26 28 32 35 36 36 37 36 35 32 30 30 30 30 30 30 30 30 30 29 29 29 29 28 28 28 27 26 26 25 25 24 23 23 22 22 23 23 24 24 23 23 23 23 24 24 24 24 24 24 24
8 9 10 11 11 11 11 11 11 12 12 9 6 7 14 23 26 27 28 31 35 37 37 36 35 33 31 28 28 28 28 28 28 29 29 28 28 28 28 27 27 27 27 27 26 26 25 25 24 24 23 23 23 23 22 23 22 22 22 21 21 22 22 23 23 23 23 23 24
8 9 10 10 9 9 9 9 11 12 12 11 10 9 13 21 25 28 30 32 35 35 34 32 30 28 27 27 27 27 27 27 27 27 27 27 27 26 26 26 26 26 26 25 25 25 24 24 23 23 22 22 22 22 21 21 21 20 20 20 20 21 21 21 22 22 22 23 25
9 10 10 9 8 8 8 9 11 13 14 15 13 12 13 18 21 23 26 27 29 29 28 27 28 28 28 28 28 29 28 28 28 27 27 27 26 26 26 26 25 25 24 24 24 24 23 23 23 22 22 21 20 19 19 19 19 19 19 19 20 20 21 21 21 22 22 23 25
10 11 10 9 8 8 10 11 11 11 11 12 12 14 16 17 18 20 22 24 25 26 27 29 30 30 30 30 30 30 29 29 28 28 27 26 26 26 26 25 24 23 23 23 23 23 23 23 23 22 21 19 18 18 18 18 18 19 19 20 20 20 21 21 22 22 22 23 24
12 12 11 10 10 10 10 9 9 12 14 18 20 21 22 21 22 23 26 27 28 29 30 31 30 31 31 31 31 30 30 29 29 28 27 26 25 25 24 23 22 22 22 22 22 23 23 22 22 21 19 17 16 16 16 17 18 19 20 21 21 21 21 21 21 22 22 22 23
14 13 13 12 11 11 14 16 19 21 22 23 25 25 25 25 25 26 28 30 31 31 31 31 31 30 31 31 31 31 30 29 28 27 26 25 24 23 22 21 20 21 21 21 21 21 20 20 18 16 15 14 14 15 16 17 18 19 20 21 22 22 22 22 21 21 21 21 22
15 14 13 15 17 20 22 23 23 24 24 25 25 25 25 25 26 27 28 30 31 31 30 29 30 31 31 31 31 30 29 29 28 27 26 25 24 22 21 19 18 19 19 20 19 18 17 15 14 13 13 13 14 14 15 15 16 18 19 20 20 20 21 21 21 21 21 21 23
17 19 21 23 23 23 24 24 25 25 25 25 24 24 25 26 27 27 28 28 29 29 29 29 29 30 31 30 30 30 29 29 28 26 25 24 23 22 20 19 17 17 17 18 18 17 16 15 14 14 14 15 15 15 15 15 16 16 16 17 16 16 17 18 19 19 19 20 22
25 26 26 25 25 25 25 26 26 26 25 25 24 25 26 27 28 28 27 27 28 28 28 28 28 30 31 31 30 30 29 28 28 27 26 25 24 23 21 20 18 17 15 15 16 16 16 16 16 16 17 17 17 17 16 16 15 15 15 15 14 14 15 15 16 17 17 18 20
27 27 26 25 25 25 26 26 26 25 25 25 25 26 27 28 28 28 28 28 28 28 28 28 30 31 31 31 30 30 30 29 28 27 27 26 26 24 22 21 20 18 15 14 14 14 15 15 16 16 17 17 17 16 16 16 15 15 14 14 13 13 13 13 13 13 14 16 17
27 27 27 27 26 26 26 26 25 25 25 26 27 29 29 30 29 29 29 29 29 29 30 32 33 33 32 31 31 31 30 30 29 28 28 28 27 26 25 23 21 19 16 14 13 12 13 13 13 14 14 15 15 15 15 15 14 14 13 13 12 12 11 12 11 11 11 13 14
28 28 28 28 27 26 26 26 26 26 26 28 29 30 31 30 29 29 29 30 30 31 32 33 33 33 32 32 32 32 31 31 30 30 29 29 28 28 26 25 23 20 17 15 14 13 12 12 12 12 12 13 13 14 14 14 14 13 13 13 12 11 10 10 10 9 10 10 12
29 29 29 28 27 26 26 26 27 27 28 29 30 30 30 29 29 29 29 30 30 31 32 33 32 32 32 32 32 33 32 32 31 31 30 30 29 29 28 27 25 22 19 17 16 15 13 13 13 13 13 14 14 15 15 15 15 14 13 13 12 11 10 10 9 9 9 9 10
30 29 29 27 26 26 26 27 28 29 29 29 29 29 29 29 29 29 29 30 31 32 33 33 32 32 31 31 32 32 32 31 31 30 30 29 29 29 29 28 26 23 21 19 18 17 16 15 15 15 16 16 16 17 17 17 16 15 14 14 13 12 11 10 10 9 9 8 8
30 29 28 27 26 26 26 27 29 30 30 30 29 29 29 29 29 28 29 31 33 33 33 33 33 32 32 32 32 31 31 31 31 30 30 30 30 31 30 28 26 23 21 20 19 18 17 16 16 16 17 18 19 19 19 18 17 16 16 16 15 14 13 12 11 10 9 9 8
29 29 28 26 26 25 26 27 28 29 29 29 28 28 28 28 28 28 29 31 33 34 33 32 32 33 33 32 32 32 32 32 31 30 30 31 32 32 31 29 26 23 21 20 20 19 18 17 16 16 17 19 20 20 19 19 18 18 18 18 17 17 16 14 13 12 11 10 9
29 29 28 26 25 24 25 26 28 28 27 27 26 27 27 27 27 26 28 31 33 33 33 32 32 33 33 33 33 32 31 31 31 30 30 31 31 32 31 29 26 24 22 20 19 18 17 16 15 15 16 18 19 20 20 20 20 20 20 20 20 19 18 17 15 14 13 11 10
29 29 28 27 25 25 25 26 27 27 26 25 25 26 27 27 26 26 27 29 31 32 33 33 32 32 33 33 33 32 31 31 31 31 30 30 30 30 30 29 27 24 22 20 19 18 17 16 15 15 15 17 19 20 21 21 21 21 22 22 22 21 20 19 18 17 15 14 11
28 29 29 28 27 26 26 27 26 26 25 25 26 27 27 28 27 27 27 29 31 33 33 33 31 31 32 33 33 33 32 32 32 32 31 31 30 30 30 29 27 24 22 20 19 18 18 17 16 16 16 18 19 20 21 22 23 24 23 23 23 23 22 21 20 19 18 16 14
27 28 28 28 27 27 27 27 26 25 25 26 26 27 28 28 28 28 29 30 32 33 33 32 31 30 31 33 33 33 33 32 32 32 31 30 30 29 29 28 27 24 22 20 19 18 18 18 17 17 17 19 20 21 22 23 24 25 24 24 23 23 23 23 22 21 20 19 16
27 28 28 27 27 27 27 27 26 25 25 26 26 26 27 27 28 28 29 30 31 31 31 30 30 31 31 32 33 34 34 33 32 31 31 31 30 29 28 27 26 24 22 20 19 18 18 18 18 18 19 20 21 21 22 22 24 25 24 23 23 23 23 23 23 23 22 21 19
Wind_Direction
180 180 182 183 184 183 182 182 184 185 186 186 186 186 187 188 188 188 189 189 191 193 195 196 196 194 190 188 188 189 190 191 193 196 197 197 196 196 195 190 179 166 158 156 158 161 163 165 165 165 165 167 168 168 169 168 168 168 168 168 170 172 174 174 177 178 178 178 178
182 183 184 184 183 181 179 179 183 186 188 189 189 189 188 187 187 187 189 191 192 194 194 195 195 194 191 190 190 190 191 191 193 195 195 192 191 189 186 179 170 160 156 155 156 158 161 163 164 163 164 166 167 168 169 169 169 168 167 168 169 172 174 175 176 177 178 177 178
184 185 185 183 180 177 175 177 183 187 189 191 191 191 189 188 187 188 190 193 194 194 194 194 194 193 192 191 190 190 191 190 189 188 185 184 182 178 173 165 158 155 154 155 157 159 161 163 164 164 164 165 166 166 167 168 169 167 166 168 169 171 173 174 175 176 177 177 178
186 186 184 181 179 177 176 178 183 187 190 191 192 192 191 189 189 190 193 195 196 195 194 194 193 192 191 190 188 189 190 189 185 179 175 174 173 170 164 157 153 153 154 156 158 160 162 164 164 164 165 166 167 166 166 166 168 168 167 168 169 171 172 173 175 176 177 178 181
188 186 184 181 179 178 177 178 182 186 189 190 190 191 190 189 189 191 193 196 197 197 197 196 193 190 189 188 187 187 188 188 181 173 169 169 168 165 159 155 154 154 156 157 159 161 162 163 163 164 166 167 168 167 167 167 168 167 166 168 170 172 173 173 175 177 178 180 183
188 187 184 182 179 177 177 181 185 188 189 190 190 190 190 189 189 190 193 196 200 200 199 197 194 190 186 185 186 186 186 186 179 170 165 165 164 160 156 154 155 156 157 158 160 161 162 162 162 162 165 167 167 167 168 168 167 166 165 167 170 172 173 173 176 178 180 182 184
188 185 182 180 178 178 180 185 189 191 192 193 193 193 193 192 192 192 196 200 202 201 199 198 195 190 184 181 182 185 186 184 176 168 162 159 157 155 153 153 154 155 156 158 159 160 161 161 160 160 162 164 165 167 169 168 167 166 165 166 169 171 173 175 178 180 182 184 185
186 183 181 180 180 182 186 190 193 195 196 197 198 198 198 197 196 197 201 204 204 202 199 197 194 191 186 181 181 183 183 178 172 166 160 157 155 152 151 151 152 154 156 158 159 160 161 161 161 161 162 163 164 166 168 169 169 168 168 169 170 172 175 178 180 182 183 185 185
183 181 181 182 183 187 191 196 199 201 201 201 202 203 204 203 202 203 205 207 207 205 200 196 192 189 186 182 180 181 179 174 169 164 161 159 155 152 151 150 151 153 155 158 159 160 161 161 161 161 163 164 165 166 168 170 169 169 169 169 171 173 176 179 181 182 183 184 185
178 179 181 183 186 190 195 200 204 206 206 207 207 209 210 211 211 210 211 211 209 205 200 195 190 188 184 180 178 177 175 171 166 163 160 157 154 152 150 150 151 153 155 157 159 161 161 161 161 162 164 165 166 167 169 170 170 169 169 170 172 175 178 179 181 181 182 184 185
176 178 180 184 186 191 196 200 204 207 210 211 214 217 221 222 220 217 214 211 206 202 197 193 188 183 179 175 175 174 172 168 164 162 158 155 152 151 151 151 152 154 155 158 160 161 162 162 162 163 165 166 167 168 169 170 170 170 170 170 173 174 176 177 179 180 181 182 184
173 175 178 181 184 188 192 197 203 207 212 218 224 230 233 230 223 216 210 205 200 196 192 187 183 178 174 171 172 171 168 165 162 158 155 152 151 151 152 152 154 155 157 159 161 162 162 163 163 164 165 166 167 168 170 171 171 170 170 171 173 173 174 176 177 178 179 181 182
170 171 172 175 179 182 187 194 201 208 216 227 239 242 237 224 213 205 200 196 192 187 181 177 175 172 170 167 167 166 164 162 159 154 151 151 151 151 152 153 155 157 159 161 162 163 163 164 164 164 165 166 167 169 171 172 172 172 171 172 173 173 174 176 177 178 179 180 182
168 168 167 169 171 175 181 189 198 207 218 232 244 241 221 198 190 188 188 187 183 175 169 167 167 166 165 163 163 162 161 158 154 151 149 150 151 151 152 154 156 158 160 162 163 164 164 164 165 165 165 166 168 170 172 174 174 174 174 174 175 176 177 178 179 179 180 182 184
166 165 164 163 163 167 175 183 193 203 215 228 239 221 184 168 168 172 175 175 171 165 160 159 160 161 161 161 161 160 156 152 150 149 149 150 151 153 154 155 157 159 160 162 163 164 165 165 166 166 167 167 169 171 173 175 176 177 177 178 179 179 180 180 181 182 184 186 188
165 163 160 157 157 161 169 179 191 200 208 218 219 182 160 154 156 159 161 161 158 154 153 154 157 158 160 161 160 156 152 149 149 149 150 151 152 154 155 156 158 159 161 162 163 164 165 166 167 168 168 168 170 172 174 177 178 179 180 181 182 182 182 183 184 185 187 190 192
165 162 157 153 152 157 164 176 191 199 199 191 163 156 156 153 152 152 152 151 149 148 149 153 156 158 159 159 157 153 150 149 149 151 152 153 154 155 156 157 158 160 161 162 162 162 164 165 167 169 169 169 171 173 175 178 180 181 182 183 184 184 184 185 187 188 190 193 195
164 162 157 152 152 155 162 174 191 201 197 172 143 149 159 159 154 151 150 149 147 147 148 152 156 157 158 157 155 152 149 149 150 151 152 153 154 155 155 157 159 161 162 162 162 163 163 165 167 169 170 171 173 175 177 179 181 182 183 183 183 184 185 187 188 190 192 194 196
162 161 157 153 155 157 161 169 188 204 206 186 145 145 155 162 157 153 150 148 147 148 149 151 154 156 156 154 152 150 149 149 149 150 151 152 153 154 155 156 159 161 162 163 164 164 166 167 169 171 172 174 176 178 180 181 181 182 182 181 181 182 184 187 189 192 194 196 198
162 161 158 157 160 161 161 166 182 201 212 208 165 146 151 158 156 152 149 147 148 149 150 152 153 154 153 150 147 145 146 147 147 148 149 151 152 154 155 157 160 162 164 165 166 167 168 169 172 173 175 176 178 179 179 179 179 179 178 178 179 181 184 188 190 193 196 198 201
164 163 161 161 164 165 164 167 179 194 205 208 191 163 159 160 157 153 151 151 152 153 154 153 152 150 147 143 140 139 141 143 144 146 148 151 153 156 159 161 163 165 166 168 168 169 170 172 174 175 176 176 176 176 176 176 176 176 176 177 180 183 187 190 193 196 199 202 205
166 163 161 160 162 166 171 177 183 190 196 200 200 197 183 171 164 159 156 155 154 154 153 150 146 142 138 136 136 137 138 139 141 144 147 150 153 156 159 161 163 164 166 168 169 171 173 175 176 176 175 173 171 171 173 175 176 178 180 182 185 188 192 195 198 201 204 207 209
164 158 155 155 160 170 183 191 194 194 196 199 198 187 173 166 162 157 152 148 145 143 139 134 132 131 131 133 134 135 135 136 137 139 142 144 146 150 154 156 158 158 160 164 168 172 175 176 177 177 174 171 170 172 176 179 182 184 185 187 189 192 196 199 203 206 208 209 209
153 149 148 152 164 180 191 195 196 190 178 162 140 126 125 131 134 132 130 128 124 121 121 121 123 125 127 129 131 132 132 131 130 131 133 136 139 144 148 150 152 154 158 163 168 173 176 177 177 176 175 175 177 181 185 188 190 190 190 190 191 194 197 201 204 207 208 209 209
145 145 151 162 172 178 173 153 130 116 110 107 106 107 109 113 112 112 112 111 109 109 111 113 116 120 122 122 124 125 125 124 124 125 126 128 133 136 139 143 148 153 159 163 168 173 176 177 177 177 178 182 186 190 193 195 196 196 195 194 194 194 196 200 203 206 208 210 210
146 151 156 158 147 124 105 97 94 94 95 97 100 102 103 104 104 104 104 103 104 105 106 108 110 114 116 116 118 118 119 119 121 123 124 125 128 131 134 139 144 150 155 160 165 170 174 176 178 180 184 190 195 197 199 200 201 199 197 196 195 196 197 199 203 207 211 214 216
144 140 128 114 100 91 88 88 88 88 89 91 94 96 98 99 100 99 97 98 101 103 104 104 105 107 110 112 113 113 113 115 118 121 123 124 125 126 129 132 136 142 148 154 160 166 172 177 180 184 187 188 187 186 185 185 188 189 190 190 193 197 199 200 204 210 216 219 221
110 103 96 91 88 85 84 84 83 84 85 88 90 92 95 97 97 96 95 96 99 101 101 100 102 104 106 107 107 108 110 112 114 117 119 120 120 119 119 119 122 130 140 149 157 164 171 176 180 184 184 182 177 174 172 172 173 175 176 179 184 191 196 197 200 206 213 216 217
92 91 89 86 84 82 82 82 82 83 86 88 89 90 92 93 94 94 94 95 97 98 98 97 100 101 102 101 103 105 107 107 109 112 114 113 111 110 109 110 112 117 129 143 154 161 167 171 175 179 181 181 176 173 170 169 167 167 168 172 177 183 189 193 196 200 205 208 209
89 88 86 83 82 81 81 82 83 85 87 88 89 89 90 91 91 92 92 92 93 94 96 99 99 98 98 98 101 102 101 102 105 108 109 108 105 103 103 104 105 108 116 131 145 154 160 164 167 171 175 177 175 171 167 165 162 160 161 163 167 172 176 180 185 192 198 201 203
87 87 85 82 81 81 81 82 84 86 87 89 89 89 89 88 87 88 88 89 90 93 97 99 99 97 96 97 98 98 97 99 101 104 105 104 102 100 99 100 99 101 106 117 130 141 149 154 159 164 169 172 170 164 159 155 150 147 146 146 148 153 159 165 171 180 189 195 199
87 86 84 82 81 82 82 83 83 84 86 87 87 87 87 86 86 86 88 90 91 92 94 95 95 94 93 94 94 95 95 95 96 98 100 101 100 98 96 95 94 95 99 106 115 125 133 141 149 156 161 163 158 152 146 141 136 133 132 130 132 136 142 150 159 168 177 186 192
85 84 83 83 82 82 83 83 83 83 83 83 84 84 85 85 86 86 87 89 90 89 89 90 90 90 89 90 91 91 92 92 93 95 96 98 98 96 94 91 90 92 96 101 106 113 120 129 137 145 149 149 143 138 135 131 127 125 123 120 121 123 126 134 142 150 161 173 180
85 83 82 82 82 82 83 84 85 84 83 82 81 82 83 83 84 84 85 86 88 89 89 89 88 88 88 89 89 90 90 91 92 93 94 96 97 95 91 88 90 92 96 99 102 106 112 119 128 135 138 137 133 129 126 123 119 116 113 111 111 112 114 118 123 130 139 150 160
84 83 82 81 81 82 83 84 85 85 84 82 80 80 81 82 82 83 85 87 89 89 88 88 89 89 89 89 89 89 89 89 90 91 93 94 95 94 91 90 92 95 96 98 100 103 107 113 120 127 130 128 124 121 119 116 112 109 107 105 103 102 103 106 109 115 122 131 139
83 83 81 80 80 80 81 83 84 83 82 81 80 81 81 81 81 83 86 89 89 88 86 86 87 88 87 86 85 86 86 87 88 89 91 93 94 93 92 91 93 95 96 96 98 101 104 109 115 120 123 122 119 117 114 112 108 105 103 100 97 96 96 97 99 103 109 116 123
83 83 82 80 78 78 79 81 81 81 80 79 80 81 82 82 81 83 86 89 88 87 86 86 84 84 84 84 83 84 86 88 89 88 88 90 91 91 91 90 91 93 94 96 98 100 103 106 110 115 117 117 115 113 111 108 105 102 99 95 92 91 91 91 92 93 95 99 106
82 83 83 82 79 78 78 78 78 78 79 79 81 83 84 84 83 83 85 87 88 87 86 85 83 83 85 87 87 87 87 88 88 88 87 87 88 90 90 89 89 91 94 95 98 99 101 104 106 110 113 113 113 111 108 106 103 100 96 92 90 89 89 88 88 87 87 88 92
79 81 83 83 81 80 78 77 77 78 80 81 82 83 83 84 83 84 85 87 88 88 88 86 85 86 88 90 90 88 86 85 86 86 85 84 86 89 90 89 89 91 93 95 97 98 100 101 104 107 109 111 111 111 109 106 102 98 95 92 89 88 87 86 86 85 85 85 87
76 78 80 81 81 80 79 78 78 79 80 82 82 82 83 84 86 87 88 88 89 90 89 89 89 89 90 90 89 87 85 83 83 83 83 84 85 87 89 89 90 91 92 93 95 97 99 100 103 106 108 109 110 110 109 106 102 97 93 91 88 86 84 84 84 83 83 84 85
73 75 76 78 78 79 79 79 79 79 80 80 80 82 85 87 89 90 90 90 90 90 90 90 90 90 90 89 88 86 83 81 80 81 83 84 84 85 86 88 89 90 90 91 93 96 98 101 103 105 107 108 108 109 109 107 102 97 93 90 88 86 83 82 82 82 82 82 83